Weather Roundup
Issued by NWS Chicago, IL

Home | Current Version | Previous Version | Graphics & Text | Print | Product List | Glossary On
Versions: 1 2 3 4 5 6 7 8 9 10 11 12 13 14 15 16 17 18 19 20 21 22 23 24 25 26 27 28 29 30 31 32 33 34 35 36 37 38 39 40 41 42 43 44 45 46 47 48 49 50
509
NZUS59 KLOT 230709
HRRLOT

CHICAGO AREA WEATHER ROUNDUP
NATIONAL WEATHER SERVICE CHICAGO/ROMEOVILLE IL
200 AM CDT MON OCT 23 2017

NOTE: "FAIR" INDICATES FEW OR NO CLOUDS BELOW 12,000 FEET WITH NO
SIGNIFICANT WEATHER AND/OR OBSTRUCTIONS TO VISIBILITY.

* THESE STATIONS ARE NOT UNDER NWS QUALITY CONTROL. THEY ALSO MAY NOT
  REPORT WEATHER SUCH AS PRECIPITATION OR FOG.

ILZ005-006-012>014-019>023-230800-
NORTHEAST ILLINOIS

CITY           SKY/WX    TMP DP  RH WIND       PRES   REMARKS
OHARE          LGT RAIN  52  50  93 N8        29.97F
MIDWAY         LGT RAIN  53  52  96 N12       29.96F
AURORA         LGT RAIN  51  50  96 N8        29.98F
LANSING*       HVY RAIN  54  54 100 N7        29.95F
JOLIET*        LGT RAIN  53  52  98 N6        29.96F
WAUKEGAN       LGT RAIN  51  50  96 NW5       29.97F FOG
DUPAGE AIRPORT LGT RAIN  51  50  96 N10       29.96F FOG
WHEELING       CLOUDY    52  52 100 N7        29.99F
KANKAKEE*      RAIN      54  53  97 N6        29.94F
MORRIS*        LGT RAIN  51  50  96 N5        29.96F
LEWIS AIRPORT* LGT RAIN  51  50  97 N7        29.97F
NORTHERLY ISL    N/A     53  50  89 NW12        N/A
$$

WIZ051-052-058>065-066-070>072-230800-
SOUTHEAST WISCONSIN

CITY           SKY/WX    TMP DP  RH WIND       PRES   REMARKS
MILWAUKEE      LGT RAIN  52  50  93 NW5       30.00S
KENOSHA*       LGT RAIN  51  49  92 NW7       29.99F
RACINE*        LGT RAIN  51  51 100 NW5       30.01S
BURLINGTON     CLOUDY    48  48 100 CALM      29.99F
WAUKESHA       LGT RAIN  46  45  93 CALM      29.99F
WEST BEND      CLOUDY    46  46 100 CALM      29.98F
$$

INZ001>003-010>013-019-020-230800-
NORTHWEST INDIANA

CITY           SKY/WX    TMP DP  RH WIND       PRES   REMARKS
GARY*          RAIN      56  55  97 N8        29.96S
MICHIGAN CITY* NOT AVBL
RENSSELAER*    NOT AVBL
VALPARAISO     RAIN      57  56  96 NE5       29.94F FOG
$$

LMZ740>746-230800-
SOUTHERN LAKE MICHIGAN

STATION/POSITION TIME  SKY/WX   TEMP WIND        PRES    VSBY
                                AIR  DIR/SP/G
                 (UTC)          (F)  (DEG/KT/KT) (MB)    (MI)
HARRISON CRIB    0640            54  350/ 16/ 17   N/A
BURNHAM HARBOR   0700            53  340/ 10/ 13   N/A
CALUMET HARBOR   0642            53  340/ 12/ 15 1013.7F
BURNS HARBOR     0640            57   40/ 11/ 13 1014.6F
MICHIGAN CITY    0640            56   20/ 12/ 13   N/A
$$

ABBREVIATIONS USED IN REMARKS
   TC - TEMPERATURE IN CELSIUS
  WCI - WIND CHILL INDEX
   HX - HEAT INDEX
  VSB - VISIBILITY
$$




USA.gov is the U.S. government's official web portal to all federal, state and local government web resources and services.